This demonstration page uses our WeatherBlox Daily Observations layout. Learn more.

Left ArrowRight Arrow

39.92423, -83.80882

Hourly Observations for January 4, 2015

Temp ( °F °C ) Dew Point ( °F °C ) Humidity (%) Winds ( mph kmh ) Pressure ( in mb ) Visibility ( mi km ) Precip ( " mm )
12:56 am 00:56 Cloudy with Mist and Fog 57 13.8 57 13.8 100 100 SSW 13 20 29.77 1008 2 3 0.00 0.00
1:16 am 01:16 Cloudy with Mist and Fog 57 14 57 14 100 100 S 10 17 29.74 1007 3 4 0.00 0.00
1:24 am 01:24 Cloudy with Mist and Fog 57 14 57 14 100 100 S 10 17 29.74 1007 4 6 0.00 0.00
1:39 am 01:39 Cloudy with Mist and Fog 57 14 57 14 100 100 S 12 19 29.74 1007 4 6 0.00 0.00
1:56 am 01:56 Cloudy with Mist and Fog 57 13.8 57 13.8 100 100 S 10 17 29.75 1007 4 6 0.00 0.00
2:44 am 02:44 Cloudy with Mist and Fog 57 14 57 14 100 100 S 14 22 29.74 1007 3 4 0.00 0.00
2:49 am 02:49 Cloudy with Mist and Fog 57 14 57 14 100 100 S 13 20 29.74 1007 2 3 0.00 0.00
2:56 am 02:56 Cloudy with Mist and Fog 57 13.8 57 13.8 100 100 SSW 15 24 29.74 1007 3 4 0.00 0.00
3:04 am 03:04 Cloudy with Mist and Fog 57 14 57 14 100 100 SSW 13 20 29.74 1007 4 6 0.00 0.00
3:24 am 03:24 Cloudy 57 14 57 14 100 100 WSW 10 17 29.74 1007 9 14 0.00 0.00
3:33 am 03:33 Cloudy with Rain 55 13 55 13 100 100 WSW 13 20 29.74 1007 2 3 0.00 0.03
3:37 am 03:37 Cloudy with Light Rain 55 13 55 13 100 100 SW 9 15 29.71 1006 1 2 0.00 0.03
3:43 am 03:43 Cloudy with Light Rain 55 13 55 13 100 100 SW 8 13 29.71 1006 2 2 0.00 0.03
3:56 am 03:56 Cloudy with Mist and Fog 55 12.7 55 12.7 100 100 SSW 8 13 29.70 1006 2 3 0.00 0.03
4:01 am 04:01 Cloudy with Light Rain 55 13 55 13 100 100 SSW 7 11 29.71 1006 2 2 0.00 0.03
4:07 am 04:07 Cloudy with Light Rain 55 13 55 13 100 100 SSW 8 13 29.71 1006 2 3 0.00 0.03
4:11 am 04:11 Cloudy with Light Rain 55 13 55 13 100 100 SW 8 13 29.71 1006 3 5 0.00 0.03
4:19 am 04:19 Cloudy with Light Rain 55 13 55 13 100 100 SW 8 13 29.68 1005 3 5 0.00 0.03
4:28 am 04:28 Cloudy with Light Rain 55 13 55 13 100 100 SW 8 13 29.68 1005 2 3 0.00 0.03
4:39 am 04:39 Cloudy with Light Rain 54 12 54 12 100 100 SW 8 13 29.68 1005 2 2 0.00 0.03
4:56 am 04:56 Cloudy with Light Rain 54 12.2 54 12.2 100 100 WSW 14 22 29.68 1005 2 3 0.00 0.03
5:03 am 05:03 Mostly Cloudy with Light Rain 54 12 54 12 100 100 WSW 12 19 29.68 1005 3 4 0.00 0.03
5:11 am 05:11 Cloudy with Light Rain 54 12 54 12 100 100 WSW 10 17 29.68 1005 2 3 0.00 0.03
5:27 am 05:27 Cloudy with Rain 54 12 54 12 100 100 WSW 12 19 29.68 1005 2 2 0.00 0.03
5:43 am 05:43 Cloudy with Rain 54 12 54 12 100 100 SW 10 17 29.68 1005 2 3 0.00 0.03
5:56 am 05:56 Cloudy with Light Rain 53 11.6 53 11.6 100 100 SW 8 13 29.68 1005 3 4 0.00 0.03
6:11 am 06:11 Cloudy with Light Rain 54 12 54 12 100 100 W 14 22 29.71 1006 5 8 0.00 0.03
6:26 am 06:26 Cloudy 54 12 54 12 100 100 WSW 22 35 29.71 1006 9 14 0.00 0.03
6:56 am 06:56 Cloudy with Mist and Fog 52 11.1 51 10.5 96 96 WSW 22 35 29.70 1006 6 10 0.00 0.03
7:03 am 07:03 Cloudy with Light Rain 52 11 52 11 100 100 W 26 43 29.74 1007 3 4 0.00 0.03
7:11 am 07:11 Cloudy with Light Rain 52 11 48 9 88 88 W 26 43 29.74 1007 3 4 0.01 0.25
7:18 am 07:18 Cloudy with Mist and Fog 48 9 46 8 94 94 W 26 43 29.77 1008 4 6 0.01 0.25
7:26 am 07:26 Cloudy with Mist and Fog 46 8 45 7 93 93 W 28 44 29.77 1008 4 6 0.01 0.25
7:47 am 07:47 Cloudy 46 8 43 6 87 87 WSW 20 31 29.77 1008 10 16 0.01 0.25
7:56 am 07:56 Cloudy 46 7.7 43 6.1 90 90 WSW 18 30 29.77 1008 10 16 0.01 0.25
8:56 am 08:56 Partly Cloudy 45 7.2 41 5 86 86 WSW 21 33 29.81 1009 10 16 0.00 0.00
9:35 am 09:35 Mostly Cloudy 45 7 43 6 93 93 WSW 22 35 29.85 1011 10 16 0.00 0.00
9:56 am 09:56 Cloudy 44 6.6 41 5 90 90 W 15 24 29.85 1011 9 14 0.00 0.00
10:56 am 10:56 Cloudy 41 5 38 3.3 89 89 W 22 35 29.89 1012 10 16 0.00 0.00
11:56 am 11:56 Cloudy 39 3.8 35 1.6 86 86 W 23 37 29.90 1013 9 14 0.00 0.00
12:08 pm 12:08 Cloudy 39 4 34 1 81 81 W 23 37 29.94 1014 9 14 0.00 0.00
12:56 pm 12:56 Cloudy 39 3.8 36 2.2 89 89 WSW 20 31 29.89 1012 10 16 0.00 0.00
1:56 pm 13:56 Cloudy with Light Rain 37 2.7 35 1.6 93 93 WSW 21 33 29.91 1013 5 8 0.00 0.03
2:05 pm 14:05 Cloudy with Light Rain 37 3 36 2 93 93 W 23 37 29.94 1014 4 6 0.00 0.03
2:56 pm 14:56 Cloudy 36 2.2 33 0.5 89 89 W 21 33 29.95 1014 10 16 0.00 0.03
3:56 pm 15:56 Cloudy with Light Wintry Mix 35 1.6 32 0 89 89 W 24 39 30.01 1016 7 11 0.00 0.03
4:25 pm 16:25 Windy with Snow Likely 34 1 30 -1 87 87 W 20 31 30.09 1019 4 6 0.00 0.03
4:56 pm 16:56 Windy with Snow Likely 34 1.1 31 -0.5 89 89 W 23 37 30.06 1018 3 5 0.00 0.03
5:18 pm 17:18 Windy with Snow Likely 34 1 30 -1 87 87 W 23 37 30.12 1020 5 8 0.00 0.03
5:42 pm 17:42 Windy with Snow Likely 34 1 30 -1 87 87 W 24 39 30.15 1021 6 10 0.00 0.03
5:56 pm 17:56 Windy with Snow Likely 33 0.5 30 -1.1 89 89 W 24 39 30.11 1020 6 10 0.00 0.03
6:41 pm 18:41 Cloudy 34 1 27 -3 75 75 W 24 39 30.18 1022 9 14 0.00 0.03
6:56 pm 18:56 Cloudy 32 0 27 -2.7 82 82 W 26 43 30.16 1021 9 14 0.00 0.03
7:12 pm 19:12 Cloudy 32 0 27 -3 80 80 W 22 35 30.21 1023 9 14 0.00 0.00
7:19 pm 19:19 Cloudy 30 -1 27 -3 86 86 W 22 35 30.21 1023 10 16 0.00 0.00
7:56 pm 19:56 Mostly Cloudy 30 -1.1 24 -4.4 79 79 W 23 37 30.20 1023 10 16 0.00 0.00
8:03 pm 20:03 Cloudy 28 -2 25 -4 86 86 W 20 31 30.24 1024 10 16 0.00 0.00
8:56 pm 20:56 Cloudy 28 -2.2 23 -5 81 81 W 21 33 30.24 1024 10 16 0.00 0.00
9:56 pm 21:56 Cloudy 26 -3.3 22 -5.5 85 85 W 24 39 30.29 1026 10 16 0.00 0.00
10:26 pm 22:26 Cloudy 27 -3 21 -6 80 80 W 21 33 30.39 1029 9 14 0.00 0.00
10:48 pm 22:48 Cloudy 25 -4 19 -7 80 80 W 18 30 30.39 1029 9 14 0.00 0.00
10:56 pm 22:56 Cloudy 25 -3.8 20 -6.6 81 81 W 21 33 30.33 1027 9 14 0.00 0.00
11:56 pm 23:56 Cloudy 23 -5 19 -7.2 85 85 W 17 28 30.35 1028 9 14 0.00 0.03

Powered by AerisWeather